| time (UTC) | temp C | wind direction | speed KPH | gust KPH | rain 1hr cm | rain 24hr cm | rain mn cm | humidity % | barometer mb |
| 20260504035547 | 13 | 194 | 0.0 | 1.6 | 0.00 | 0.03 | 0.03 | 68 | 1005.4 |
| 20260504034653 | 13 | 195 | 0.0 | 1.6 | 0.00 | 0.03 | 0.03 | 67 | 1005.5 |
| 20260504033747 | 13 | 194 | 0.0 | 1.6 | 0.00 | 0.03 | 0.03 | 66 | 1005.6 |
| 20260504032847 | 13 | 195 | 0.0 | 1.6 | 0.00 | 0.03 | 0.03 | 66 | 1005.8 |
| 20260504031947 | 13 | 195 | 0.0 | 1.6 | 0.00 | 0.03 | 0.03 | 65 | 1005.9 |
| 20260504031047 | 14 | 194 | 0.0 | 1.6 | 0.00 | 0.03 | 0.03 | 64 | 1006.0 |
| 20260504030147 | 14 | 195 | 0.0 | 1.6 | 0.00 | 0.03 | 0.03 | 63 | 1006.0 |
| 20260504024347 | 15 | 195 | 0.0 | 3.2 | 0.00 | 0.03 | 0.03 | 62 | 1005.9 |
| 20260504023447 | 15 | 194 | 0.0 | 1.6 | 0.00 | 0.03 | 0.03 | 61 | 1006.0 |
| 20260504022547 | 15 | 194 | 0.0 | 1.6 | 0.00 | 0.03 | 0.03 | 60 | 1006.0 |
| 20260504021647 | 15 | 194 | 0.0 | 1.6 | 0.00 | 0.03 | 0.03 | 59 | 1005.9 |
| 20260504020747 | 15 | 194 | 0.0 | 3.2 | 0.00 | 0.03 | 0.03 | 58 | 1005.8 |
| 20260504015847 | 16 | 195 | 0.0 | 1.6 | 0.00 | 0.03 | 0.03 | 58 | 1005.6 |
| 20260504014947 | 16 | 194 | 0.0 | 3.2 | 0.00 | 0.03 | 0.03 | 57 | 1005.5 |
| 20260504014047 | 16 | 169 | 1.6 | 3.2 | 0.00 | 0.03 | 0.03 | 56 | 1005.5 |
| 20260504013147 | 16 | 170 | 1.6 | 3.2 | 0.00 | 0.03 | 0.03 | 56 | 1005.4 |
| 20260504012247 | 16 | 178 | 1.6 | 3.2 | 0.00 | 0.03 | 0.03 | 55 | 1005.3 |
| 20260504011347 | 17 | 184 | 1.6 | 4.8 | 0.00 | 0.03 | 0.03 | 54 | 1005.4 |
| 20260504010447 | 17 | 149 | 1.6 | 4.8 | 0.00 | 0.03 | 0.03 | 53 | 1005.4 |
| 20260504004647 | 17 | 170 | 1.6 | 4.8 | 0.00 | 0.03 | 0.03 | 51 | 1005.2 |
| 20260504003747 | 17 | 163 | 1.6 | 6.4 | 0.00 | 0.03 | 0.03 | 51 | 1005.3 |
| 20260504002847 | 18 | 163 | 1.6 | 8.0 | 0.00 | 0.03 | 0.03 | 50 | 1005.4 |
| 20260504001947 | 18 | 167 | 1.6 | 6.4 | 0.00 | 0.03 | 0.03 | 48 | 1005.3 |
| 20260504001047 | 18 | 173 | 3.2 | 8.0 | 0.00 | 0.03 | 0.03 | 48 | 1005.4 |
| 20260504000147 | 18 | 194 | 1.6 | 9.7 | 0.00 | 0.03 | 0.03 | 47 | 1005.3 |
| 20260503235247 | 18 | 148 | 3.2 | 6.4 | 0.00 | 0.05 | 0.03 | 47 | 1005.3 |
| 20260503234347 | 19 | 139 | 1.6 | 6.4 | 0.00 | 0.05 | 0.03 | 46 | 1005.3 |
| 20260503233447 | 19 | 154 | 1.6 | 8.0 | 0.00 | 0.05 | 0.03 | 46 | 1005.4 |
| 20260503232547 | 19 | 144 | 3.2 | 8.0 | 0.00 | 0.05 | 0.03 | 45 | 1005.3 |
| 20260503231647 | 20 | 159 | 3.2 | 8.0 | 0.00 | 0.05 | 0.03 | 44 | 1005.4 |
| 20260503230747 | 20 | 169 | 3.2 | 8.0 | 0.00 | 0.05 | 0.03 | 44 | 1005.4 |
| 20260503225847 | 20 | 181 | 3.2 | 9.7 | 0.00 | 0.05 | 0.03 | 44 | 1005.6 |
| 20260503224947 | 20 | 162 | 3.2 | 9.7 | 0.00 | 0.05 | 0.03 | 43 | 1005.7 |
| 20260503224047 | 19 | 163 | 3.2 | 8.0 | 0.00 | 0.05 | 0.03 | 45 | 1005.6 |
| 20260503223147 | 19 | 167 | 3.2 | 8.0 | 0.00 | 0.05 | 0.03 | 44 | 1005.8 |
| 20260503222247 | 18 | 154 | 3.2 | 8.0 | 0.00 | 0.05 | 0.03 | 44 | 1005.9 |
| 20260503221347 | 19 | 183 | 3.2 | 12.9 | 0.00 | 0.05 | 0.03 | 42 | 1006.0 |
| 20260503214647 | 19 | 164 | 3.2 | 6.4 | 0.00 | 0.05 | 0.03 | 45 | 1006.2 |
| 20260503212847 | 18 | 141 | 3.2 | 6.4 | 0.00 | 0.05 | 0.03 | 44 | 1006.5 |
| 20260503211946 | 18 | 171 | 3.2 | 8.0 | 0.00 | 0.05 | 0.03 | 46 | 1006.7 |
| 20260503211046 | 17 | 167 | 3.2 | 11.3 | 0.00 | 0.05 | 0.03 | 45 | 1006.8 |
| 20260503210147 | 18 | 171 | 3.2 | 9.7 | 0.00 | 0.05 | 0.03 | 45 | 1007.1 |
| 20260503205246 | 17 | 149 | 3.2 | 12.9 | 0.00 | 0.05 | 0.03 | 44 | 1007.2 |
| 20260503204346 | 17 | 176 | 3.2 | 9.7 | 0.00 | 0.05 | 0.03 | 44 | 1007.4 |
| 20260503203446 | 17 | 183 | 3.2 | 9.7 | 0.00 | 0.05 | 0.03 | 44 | 1007.6 |
| 20260503202546 | 17 | 149 | 3.2 | 11.3 | 0.00 | 0.05 | 0.03 | 45 | 1007.7 |
| 20260503201646 | 17 | 170 | 4.8 | 11.3 | 0.00 | 0.05 | 0.03 | 43 | 1007.8 |
| 20260503200746 | 17 | 158 | 4.8 | 12.9 | 0.00 | 0.05 | 0.03 | 45 | 1007.7 |
| 20260503195846 | 18 | 157 | 4.8 | 11.3 | 0.00 | 0.05 | 0.03 | 45 | 1007.9 |
| 20260503194946 | 18 | 158 | 4.8 | 16.1 | 0.00 | 0.05 | 0.03 | 46 | 1007.9 |
| 20260503194046 | 17 | 175 | 4.8 | 14.5 | 0.00 | 0.05 | 0.03 | 48 | 1008.0 |
| 20260503193146 | 17 | 169 | 3.2 | 9.7 | 0.00 | 0.05 | 0.03 | 53 | 1008.1 |
| 20260503192246 | 17 | 153 | 4.8 | 16.1 | 0.00 | 0.05 | 0.03 | 51 | 1008.2 |
| 20260503191346 | 16 | 150 | 4.8 | 12.9 | 0.00 | 0.05 | 0.03 | 56 | 1008.4 |
| 20260503190447 | 16 | 148 | 3.2 | 12.9 | 0.00 | 0.05 | 0.03 | 59 | 1008.5 |
| 20260503185547 | 15 | 151 | 3.2 | 6.4 | 0.00 | 0.05 | 0.03 | 62 | 1008.7 |
| 20260503184647 | 15 | 147 | 3.2 | 9.7 | 0.00 | 0.05 | 0.03 | 64 | 1009.1 |
| 20260503183747 | 14 | 134 | 3.2 | 11.3 | 0.00 | 0.05 | 0.03 | 68 | 1009.1 |
| 20260503182846 | 13 | 169 | 3.2 | 12.9 | 0.00 | 0.05 | 0.03 | 68 | 1009.3 |
| 20260503181946 | 12 | 155 | 3.2 | 8.0 | 0.00 | 0.05 | 0.03 | 70 | 1009.5 |
| 20260503181046 | 12 | 165 | 3.2 | 9.7 | 0.00 | 0.05 | 0.03 | 68 | 1009.8 |
| 20260503180147 | 11 | 141 | 3.2 | 8.0 | 0.00 | 0.05 | 0.03 | 64 | 1010.0 |
| 20260503174346 | 10 | 137 | 3.2 | 4.8 | 0.00 | 0.08 | 0.03 | 60 | 1010.4 |
| 20260503173446 | 9 | 142 | 1.6 | 4.8 | 0.00 | 0.08 | 0.03 | 59 | 1011.1 |
| 20260503172546 | 9 | 153 | 1.6 | 4.8 | 0.00 | 0.08 | 0.03 | 60 | 1011.4 |
| 20260503171646 | 9 | 143 | 1.6 | 8.0 | 0.00 | 0.08 | 0.03 | 61 | 1011.7 |
| 20260503150146 | 11 | 156 | 1.6 | 6.4 | 0.00 | 0.10 | 0.03 | 61 | 1013.3 |
| 20260503131347 | 8 | 189 | 1.6 | 4.8 | 0.00 | 0.20 | 0.03 | 66 | 1013.9 |
| 20260503130449 | 8 | 198 | 1.6 | 3.2 | 0.00 | 0.20 | 0.03 | 67 | 1014.1 |
| 20260503120147 | 7 | 199 | 1.6 | 4.8 | 0.03 | 0.20 | 0.03 | 69 | 1014.0 |
| 20260503080730 | 6 | 99 | 0.0 | 3.2 | 0.00 | 0.18 | 0.00 | 66 | 1014.5 |
| 20260503072230 | 6 | 0 | 0.0 | 0.0 | 0.00 | 0.18 | 0.00 | 66 | 1014.5 |
| 20260503072104 | 6 | 0 | 0.0 | 0.0 | 0.00 | 0.18 | 0.00 | 66 | 1014.4 |
| 20260503071210 | 6 | 91 | 0.0 | 1.6 | 0.00 | 0.18 | 0.00 | 65 | 1014.5 |
| 20260503060131 | 6 | 91 | 0.0 | 1.6 | 0.00 | 0.18 | 0.00 | 64 | 1015.1 |
| 20260503054331 | 6 | 91 | 0.0 | 1.6 | 0.00 | 0.18 | 0.00 | 64 | 1015.2 |
| 20260503053431 | 6 | 91 | 0.0 | 1.6 | 0.00 | 0.18 | 0.00 | 65 | 1015.3 |
| 20260503052530 | 6 | 0 | 0.0 | 0.0 | 0.00 | 0.18 | 0.00 | 66 | 1015.4 |
| 20260503051631 | 6 | 0 | 0.0 | 0.0 | 0.00 | 0.18 | 0.00 | 66 | 1015.5 |
| 20260503050731 | 6 | 0 | 0.0 | 0.0 | 0.00 | 0.18 | 0.00 | 65 | 1015.5 |
| 20260503045831 | 6 | 0 | 0.0 | 0.0 | 0.00 | 0.18 | 0.18 | 65 | 1015.5 |
| 20260503044931 | 6 | 0 | 0.0 | 0.0 | 0.00 | 0.18 | 0.18 | 65 | 1015.5 |
| 20260503044030 | 6 | 0 | 0.0 | 0.0 | 0.00 | 0.18 | 0.18 | 65 | 1015.5 |
| 20260503043131 | 6 | 0 | 0.0 | 0.0 | 0.00 | 0.18 | 0.18 | 65 | 1015.5 |
| 20260503042231 | 6 | 0 | 0.0 | 0.0 | 0.00 | 0.18 | 0.18 | 65 | 1015.5 |
| 20260503040431 | 6 | 91 | 0.0 | 1.6 | 0.00 | 0.18 | 0.18 | 65 | 1015.7 |